This demonstration page uses our WeatherBlox Daily Observations layout. Learn more.

Left ArrowRight Arrow

39.51506, -84.39828

Hourly Observations for May 22, 2017

Temp ( °F °C ) Dew Point ( °F °C ) Humidity (%) Winds ( mph kmh ) Pressure ( in mb ) Visibility ( mi km ) Precip ( " mm )
12:15 am 00:15 Clear 62 16.9 50 9.9 64 64 WNW 9 15 30.03 1017 10 16 0.00 0.00
12:35 am 00:35 Clear 62 16.6 50 10.1 66 66 NW 5 7 30.03 1017 10 16 0.00 0.00
12:55 am 00:55 Clear 61 16 50 9.8 67 67 Calm 30.03 1017 10 16 0.00 0.00
1:15 am 01:15 Clear 60 15.8 49 9.4 66 66 WNW 5 7 30.03 1017 10 16 0.00 0.00
1:35 am 01:35 Clear 60 15.3 49 9.5 69 69 WNW 6 9 30.06 1018 10 16 0.00 0.00
1:55 am 01:55 Clear 60 15.3 50 9.8 70 70 WNW 6 9 30.09 1019 10 16 0.00 0.00
2:15 am 02:15 Partly Cloudy 60 15.3 50 10 71 71 Calm 30.09 1019 10 16 0.00 0.00
2:35 am 02:35 Partly Cloudy 60 15.3 49 9.7 69 69 W 5 7 30.09 1019 10 16 0.00 0.00
2:55 am 02:55 Partly Cloudy 58 14.6 49 9.2 70 70 Calm 30.09 1019 10 16 0.00 0.00
3:15 am 03:15 Mostly Cloudy 57 14 48 8.8 71 71 W 5 7 30.09 1019 10 16 0.00 0.00
3:35 am 03:35 Mostly Cloudy 57 13.8 46 7.7 67 67 WNW 8 13 30.09 1019 10 16 0.00 0.00
3:55 am 03:55 Partly Cloudy 57 13.8 44 6.6 62 62 W 7 11 30.12 1020 10 16 0.00 0.00
4:15 am 04:15 Partly Cloudy 55 12.5 42 5.4 62 62 W 7 11 30.12 1020 10 16 0.00 0.00
4:35 am 04:35 Partly Cloudy 55 12.5 40 4.7 59 59 W 3 6 30.12 1020 10 16 0.00 0.00
4:55 am 04:55 Clear 55 12.5 42 5.4 62 62 Calm 30.12 1020 10 16 0.00 0.00
5:15 am 05:15 Clear 51 10.5 42 5.4 71 71 Calm 30.12 1020 10 16 0.00 0.00
5:35 am 05:35 Clear 49 9.6 43 6.3 80 80 Calm 30.12 1020 10 16 0.00 0.00
5:55 am 05:55 Clear 49 9.6 44 6.4 81 81 Calm 30.12 1020 10 16 0.00 0.00
6:15 am 06:15 Clear 49 9.6 44 6.4 81 81 Calm 30.12 1020 10 16 0.00 0.00
6:35 am 06:35 Sunny 49 9.6 44 6.5 81 81 Calm 30.12 1020 10 16 0.00 0.00
6:55 am 06:55 Sunny 49 9.6 44 6.7 82 82 Calm 30.15 1021 10 16 0.00 0.00
7:15 am 07:15 Sunny 49 9.6 44 6.8 83 83 Calm 30.12 1020 10 16 0.00 0.00
7:35 am 07:35 Sunny 53 11.7 46 8 78 78 Calm 30.12 1020 10 16 0.00 0.00
7:55 am 07:55 Sunny 55 12.5 45 7.3 71 71 SSW 3 6 30.15 1021 10 16 0.00 0.00
8:15 am 08:15 Sunny 55 12.5 42 5.6 63 63 SW 5 7 30.15 1021 10 16 0.00 0.00
8:35 am 08:35 Sunny 57 13.8 43 6.2 60 60 SW 6 9 30.15 1021 10 16 0.00 0.00
8:55 am 08:55 Sunny 57 13.8 43 6.1 60 60 W 7 11 30.15 1021 10 16 0.00 0.00
9:15 am 09:15 Sunny 57 14 42 5.8 58 58 WSW 9 15 30.18 1022 10 16 0.00 0.00
9:35 am 09:35 Sunny 60 15.3 43 6.3 55 55 W 7 11 30.18 1022 10 16 0.00 0.00
9:55 am 09:55 Sunny 60 15.3 42 5.5 52 52 W 8 13 30.18 1022 10 16 0.00 0.00
10:15 am 10:15 Sunny 60 15.5 40 4.2 47 47 W 10 17 30.18 1022 10 16 0.00 0.00
10:35 am 10:35 Sunny 60 15.8 39 3.9 45 45 W 9 15 30.18 1022 10 16 0.00 0.00
10:55 am 10:55 Sunny 61 16 38 3.4 43 43 W 10 17 30.18 1022 10 16 0.00 0.00
11:15 am 11:15 Sunny 61 16.3 40 4.2 45 45 WNW 7 11 30.15 1021 10 16 0.00 0.00
11:35 am 11:35 Sunny 61 16.1 39 3.8 44 44 WNW 6 9 30.15 1021 10 16 0.00 0.00
11:55 am 11:55 Sunny 62 16.8 41 5 46 46 NW 5 7 30.12 1020 10 16 0.00 0.00
12:15 pm 12:15 Sunny 62 16.6 38 3.5 42 42 WNW 3 6 30.15 1021 10 16 0.00 0.00
12:35 pm 12:35 Sunny 62 16.6 38 3.5 42 42 W 6 9 30.15 1021 10 16 0.00 0.00
12:55 pm 12:55 Sunny 63 17 39 3.8 42 42 WNW 5 7 30.12 1020 10 16 0.00 0.00
1:15 pm 13:15 Sunny 64 17.9 39 4 40 40 Calm 30.09 1019 10 16 0.00 0.00
1:35 pm 13:35 Sunny 64 18 40 4.5 41 41 W 6 9 30.09 1019 10 16 0.00 0.00
1:55 pm 13:55 Sunny 64 18 37 2.8 36 36 Calm 30.09 1019 10 16 0.00 0.00
2:15 pm 14:15 Sunny 67 19.5 42 5.3 40 40 Calm 30.09 1019 10 16 0.00 0.00
2:35 pm 14:35 Sunny 69 20.4 41 4.9 36 36 Calm 30.09 1019 10 16 0.00 0.00
2:55 pm 14:55 Sunny 69 20.8 41 4.8 35 35 SSW 3 6 30.06 1018 10 16 0.00 0.00
3:15 pm 15:15 Sunny 69 20.8 40 4.6 35 35 NE 3 6 30.06 1018 10 16 0.00 0.00
3:35 pm 15:35 Sunny 69 20.8 40 4.3 34 34 Calm 30.06 1018 10 16 0.00 0.00
3:55 pm 15:55 Sunny 69 20.8 40 4.5 34 34 Calm 30.06 1018 10 16 0.00 0.00
4:15 pm 16:15 Sunny 69 20.8 40 4.4 34 34 Calm 30.06 1018 10 16 0.00 0.00
4:35 pm 16:35 Sunny 70 20.9 39 3.9 33 33 Calm 30.03 1017 10 16 0.00 0.00
4:55 pm 16:55 Sunny 69 20.8 40 4.4 34 34 Calm 30.03 1017 10 16 0.00 0.00
5:15 pm 17:15 Sunny 69 20.8 40 4.2 34 34 Calm 30.03 1017 10 16 0.00 0.00
5:35 pm 17:35 Sunny 69 20.8 42 5.3 36 36 SE 3 6 30.03 1017 10 16 0.00 0.00
5:55 pm 17:55 Sunny 69 20.8 41 5 36 36 SE 3 6 30.03 1017 10 16 0.00 0.00
6:15 pm 18:15 Sunny 69 20.8 39 3.8 33 33 Calm 30.00 1016 10 16 0.00 0.00
6:35 pm 18:35 Sunny 69 20.8 37 3 31 31 Calm 30.00 1016 10 16 0.00 0.00
6:55 pm 18:55 Sunny 70 21.3 38 3.3 31 31 Calm 30.00 1016 10 16 0.00 0.00
7:15 pm 19:15 Sunny 69 20.8 39 4.1 34 34 N 3 6 30.00 1016 10 16 0.00 0.00
7:35 pm 19:35 Sunny 69 20.8 41 5 36 36 Calm 30.00 1016 10 16 0.00 0.00
7:55 pm 19:55 Sunny 69 20.8 45 7.3 42 42 SW 3 6 30.00 1016 10 16 0.00 0.00
8:15 pm 20:15 Sunny 69 20.8 46 7.5 42 42 S 3 6 30.00 1016 10 16 0.00 0.00
8:35 pm 20:35 Sunny 69 20.8 43 6.2 39 39 SSE 5 7 30.00 1016 10 16 0.00 0.00
8:55 pm 20:55 Clear 62 16.7 48 8.8 60 60 Calm 30.00 1016 10 16 0.00 0.00
9:15 pm 21:15 Clear 64 18 42 5.8 45 45 SE 5 7 30.00 1016 10 16 0.00 0.00
9:35 pm 21:35 Clear 59 15 50 10.2 73 73 Calm 30.03 1017 10 16 0.00 0.00
9:55 pm 21:55 Clear 58 14.4 50 10 75 75 Calm 30.03 1017 10 16 0.00 0.00
10:15 pm 22:15 Clear 60 15.3 49 9.5 69 69 Calm 30.03 1017 10 16 0.00 0.00
10:35 pm 22:35 Clear 60 15.3 50 9.8 70 70 Calm 30.03 1017 10 16 0.00 0.00
10:55 pm 22:55 Clear 57 13.8 49 9.7 76 76 Calm 30.03 1017 10 16 0.00 0.00
11:15 pm 23:15 Clear 57 13.8 51 10.3 80 80 Calm 30.03 1017 10 16 0.00 0.00
11:35 pm 23:35 Clear 55 12.9 49 9.4 79 79 Calm 30.03 1017 10 16 0.00 0.00
11:55 pm 23:55 Clear 55 12.5 48 8.7 78 78 Calm 30.03 1017 10 16 0.00 0.00

Powered by AerisWeather